This is the latest recevied weather packets stored in our database for station/object KC5DAQ-27. If no packets are shown the sender has not sent any weather packets the latest 1 day(s).
| Time | Temp. | Humidity | Pressure | Rain* | Wind** | Luminosity | Snow |
|---|---|---|---|---|---|---|---|
| 1777977364 | 21.67° C | 94% | 999.8 hPa | 0 mm | 2.68 m/s, 159° | 0 W/m² | - |
| 1777977302 | 21.67° C | 94% | 999.7 hPa | 0 mm | 2.68 m/s, 178° | 0 W/m² | - |
| 1777977242 | 21.67° C | 94% | 999.7 hPa | 0 mm | 2.68 m/s, 186° | 0 W/m² | - |
| 1777977183 | 21.67° C | 94% | 999.8 hPa | 0 mm | 3.13 m/s, 155° | 0 W/m² | - |
| 1777977123 | 21.67° C | 94% | 999.8 hPa | 0 mm | 3.13 m/s, 178° | 0 W/m² | - |
| 1777977062 | 21.67° C | 94% | 999.8 hPa | 0 mm | 2.24 m/s, 183° | 0 W/m² | - |
| 1777977002 | 21.67° C | 94% | 999.8 hPa | 0 mm | 2.68 m/s, 166° | 0 W/m² | - |
| 1777976942 | 21.67° C | 94% | 999.8 hPa | 0 mm | 2.24 m/s, 178° | 0 W/m² | - |
| 1777976882 | 21.67° C | 94% | 999.9 hPa | 0 mm | 2.68 m/s, 207° | 0 W/m² | - |
| 1777976822 | 21.67° C | 94% | 999.9 hPa | 0 mm | 3.13 m/s, 188° | 0 W/m² | - |
| 1777976763 | 21.67° C | 94% | 999.9 hPa | 0 mm | 3.13 m/s, 179° | 0 W/m² | - |
| 1777976704 | 21.67° C | 94% | 1000 hPa | 0 mm | 3.13 m/s, 199° | 0 W/m² | - |
| 1777976642 | 21.67° C | 94% | 999.9 hPa | 0 mm | 2.24 m/s, 190° | 0 W/m² | - |
| 1777976582 | 21.67° C | 94% | 1000 hPa | 0 mm | 1.79 m/s, 183° | 0 W/m² | - |
| 1777976523 | 21.67° C | 94% | 1000 hPa | 0 mm | 2.24 m/s, 171° | 0 W/m² | - |
| 1777976462 | 21.11° C | 94% | 1000 hPa | 0 mm | 2.24 m/s, 197° | 0 W/m² | - |
| 1777976403 | 21.11° C | 94% | 999.9 hPa | 0 mm | 1.79 m/s, 179° | 0 W/m² | - |
| 1777976342 | 21.11° C | 94% | 999.9 hPa | 0 mm | 1.79 m/s, 178° | 0 W/m² | - |
| 1777976283 | 21.11° C | 94% | 999.9 hPa | 0 mm | 2.24 m/s, 189° | 0 W/m² | - |
| 1777976223 | 21.11° C | 94% | 999.9 hPa | 0 mm | 2.68 m/s, 176° | 0 W/m² | - |
| 1777976162 | 21.11° C | 94% | 999.9 hPa | 0 mm | 2.24 m/s, 190° | 0 W/m² | - |
| 1777976104 | 21.11° C | 94% | 999.9 hPa | 0 mm | 2.68 m/s, 176° | 0 W/m² | - |
| 1777976042 | 21.11° C | 94% | 1000 hPa | 0 mm | 3.13 m/s, 186° | 0 W/m² | - |
| 1777975982 | 21.11° C | 94% | 1000 hPa | 0 mm | 2.68 m/s, 188° | 0 W/m² | - |
| 1777975923 | 21.11° C | 94% | 999.9 hPa | 0 mm | 2.68 m/s, 193° | 0 W/m² | - |
* Rain latest hour (hover to see other rain measurements)
** Current wind speed in m/s (hover to see current wind gust speed)